Location: *
(47.7167°N, 1.7333°W)
Time: 08:58:10
(UTC+00:00)

Daily predictions for brighter satellites

Satellite Brightness Start Highest point End
(mag) Time Altitude Azimuth Time Altitude Azimuth Time Altitude Azimuth
STARLINK-1225 4.4 19:15:08 10° WNW 19:19:08 44° NNE 19:23:08 10° E
MOS 1 4.4 19:13:46 10° SSE 19:19:18 59° ENE 19:24:53 10° N
Resurs 01 Rocket 3.2 19:18:37 10° ESE 19:21:45 19° ENE 19:24:53 10° NNE
STARLINK-52 3.8 19:18:53 10° SSW 19:21:45 30° SE 19:24:38 10° ENE
IRIDIUM 106 4.3 19:17:00 10° N 19:22:15 82° E 19:27:29 10° S
Cosmos 1758 Rocket 3.6 19:19:31 10° N 19:23:52 85° W 19:28:11 10° S
CZ-2C R/B 3.8 19:20:15 10° NE 19:24:04 20° E 19:27:53 10° SE
STARLINK-1230 4.4 19:20:07 10° WNW 19:24:07 45° NNE 19:28:08 10° E
Nadezhda 1 Rocket 4.2 19:19:03 10° SSE 19:25:12 52° E 19:31:18 10° NNE
BREEZE M DEB (TANK) 4.0 19:22:55 10° SSE 19:25:15 18° ESE 19:29:17 10° ENE
SL-24 R/B - RUBIN 2 4.4 19:23:19 10° SSW 19:28:45 57° ESE 19:34:54 10° NE
STARLINK-1243 4.3 19:25:05 10° WNW 19:29:07 47° NNE 19:33:08 10° E
SPOT 3 Rocket 4.1 19:24:26 10° SE 19:29:18 41° ENE 19:34:10 10° N
FALCON 9 DEB 3.7 19:26:46 10° SSW 19:30:03 38° SE 19:33:20 10° ENE
ARGOS 3.2 19:25:20 10° SSE 19:30:40 69° ENE 19:36:02 10° N
Cosmos 2154 Rocket 4.1 19:24:54 10° N 19:31:12 61° ENE 19:37:26 10° SSE
Cosmos 1953 Rocket 3.6 19:27:40 10° N 19:32:09 68° E 19:36:37 10° SSE
Cosmos 1606 Rocket 3.5 19:28:04 10° S 19:32:30 72° E 19:36:58 10° NNE
NOSS 3-4 (A) 4.0 19:26:32 10° NW 19:33:31 86° SW 19:41:15 10° SE
NOSS 3-4 (C) 4.0 19:26:39 10° NW 19:33:38 87° SW 19:41:22 10° SE
STARLINK-1236 4.3 19:30:05 10° WNW 19:34:07 48° NNE 19:38:09 10° E
GEOS 3 Rocket 3.9 19:29:14 10° SSE 19:34:21 68° SW 19:39:35 10° NW
USA 186 1.7 19:32:51 10° SSE 19:36:07 81° ENE 19:39:14 10° N
STARLINK-67 2.9 19:34:41 10° WNW 19:37:11 50° SSW 19:39:24 12° SE
CZ-4 R/B 4.3 19:36:19 10° SW 19:38:46 16° W 19:41:14 10° NW
Cosmos 1953 3.6 19:35:03 10° SSW 19:38:52 45° WNW 19:42:45 10° N
Meteor 1-11 4.2 19:36:31 10° N 19:42:17 73° ENE 19:47:56 10° SSE
Cosmos 1818 4.1 19:37:12 10° SW 19:42:36 64° NW 19:48:02 10° NNE
STARLINK-1269 4.2 19:40:03 10° WNW 19:44:06 52° NNE 19:47:44 13° E
STARLINK-1200 4.1 19:45:02 10° WNW 19:49:06 54° NNE 19:52:31 14° E
Cosmos 2074 Rocket 4.5 19:43:53 10° NNW 19:50:08 66° W 19:56:21 10° S
STARLINK-1234 3.0 19:50:36 10° WNW 19:53:44 69° SSW 19:55:47 19° SE
STARLINK-1192 4.0 19:50:01 10° WNW 19:54:06 56° NNE 19:57:18 16° E
STARLINK-1209 3.0 19:51:05 10° WNW 19:54:11 65° SSW 19:56:15 19° SE
STARLINK-1233 2.8 19:51:27 10° WNW 19:54:37 88° SSW 19:56:38 20° ESE
STARLINK-1212 2.8 19:51:56 10° WNW 19:55:04 88° SW 19:57:04 20° ESE
STARLINK-1105 2.8 19:52:22 10° WNW 19:55:31 87° SSW 19:57:31 21° ESE
STARLINK-1206 2.8 19:52:50 10° WNW 19:55:58 86° SSW 19:57:55 21° ESE
STARLINK-1247 2.8 19:53:18 10° WNW 19:56:26 86° SSW 19:58:22 21° ESE
STARLINK-1227 2.8 19:53:42 10° WNW 19:56:51 85° SSW 19:58:47 21° ESE
STARLINK-1218 2.8 19:54:12 10° WNW 19:57:19 84° SSW 19:59:14 21° ESE
STARLINK-1226 2.8 19:54:39 10° WNW 19:57:46 84° SSW 19:59:40 22° ESE
SeaSat 1 3.4 19:53:05 10° NNE 19:57:53 52° NW 20:02:39 10° SW
Cosmos 1980 Rocket 4.3 19:55:20 10° N 19:57:59 13° NNE 20:00:39 10° ENE
STARLINK-1254 2.8 19:55:04 10° WNW 19:58:13 83° SSW 20:00:06 22° ESE
STARLINK-1215 2.8 19:55:33 10° WNW 19:58:41 83° SSW 20:00:32 22° ESE
STARLINK-1231 2.8 19:56:00 10° WNW 19:59:08 82° SSW 20:00:58 22° ESE
STARLINK-1244 4.0 19:55:05 10° WNW 19:59:11 59° NNE 20:02:10 18° E
STARLINK-1232 2.8 19:56:54 10° WNW 20:00:03 81° SSW 20:01:50 23° SE
STARLINK-1217 2.8 19:57:21 10° WNW 20:00:29 80° SSW 20:02:16 23° SE
Abrixas rocket 2.2 19:57:40 10° W 20:00:35 55° SSW 20:02:07 24° SE
STARLINK-1208 2.8 19:57:46 10° WNW 20:00:55 80° SSW 20:02:43 23° SE
USA 234 4.3 19:56:10 10° ENE 20:00:58 21° SE 20:05:44 10° S
Cosmos 1892 4.3 19:58:19 10° NNE 20:01:07 19° ENE 20:02:13 17° E
STARLINK-1229 2.8 19:58:16 10° WNW 20:01:23 79° SSW 20:03:07 24° SE
STARLINK-1271 2.8 19:58:42 10° WNW 20:01:50 78° SSW 20:03:34 24° SE
STARLINK-1270 2.8 19:59:10 10° WNW 20:02:18 78° SSW 20:04:00 24° SE
STARLINK-1154 2.8 19:59:37 10° WNW 20:02:45 77° SSW 20:04:26 24° SE
STARLINK-1197 2.9 20:00:31 10° WNW 20:03:39 76° SSW 20:05:18 25° SE
ATLAS 5 CENTAUR R/B 1.5 19:59:52 10° SW 20:04:01 87° SE 20:08:46 10° NE
STARLINK-1189 2.9 20:00:57 10° WNW 20:04:05 75° SSW 20:05:43 25° SE
STARLINK-1138 3.9 19:59:58 10° WNW 20:04:06 61° NNE 20:06:52 20° E
H-2A R/B 2.8 19:59:08 10° S 20:04:11 53° W 20:09:09 10° NNW
STARLINK-1198 2.9 20:01:26 10° WNW 20:04:33 75° SSW 20:06:10 25° SE
STARLINK-1188 2.9 20:01:52 10° WNW 20:04:59 74° SSW 20:06:35 26° SE
ATLAS 2AS CENTAUR R/B 3.4 19:58:15 10° NW 20:05:38 57° WSW 20:12:23 10° SSE
STARLINK-1235 3.2 20:02:32 10° WNW 20:05:39 59° SSW 20:07:18 24° SE
STARLINK-1187 3.0 20:02:56 10° WNW 20:06:05 65° SSW 20:07:42 25° SE
STARLINK-1199 2.9 20:03:48 10° WNW 20:06:57 72° SSW 20:08:31 27° SE
STARLINK-1191 2.9 20:04:15 10° WNW 20:07:23 71° SSW 20:08:56 27° SE
STARLINK-1210 2.9 20:04:42 10° WNW 20:07:51 71° SSW 20:09:23 27° SE
STARLINK-1221 2.9 20:05:10 10° WNW 20:08:18 70° SSW 20:09:49 27° SE
STARLINK-1219 3.0 20:05:37 10° WNW 20:08:45 70° SSW 20:10:15 28° SE
COSMOS 2455 2.9 20:02:48 10° NW 20:08:53 88° WSW 20:13:57 15° SSE
STARLINK-1143 3.8 20:04:57 10° WNW 20:09:05 64° NNE 20:11:39 22° E
STARLINK-1222 3.0 20:06:03 10° WNW 20:09:12 69° SSW 20:10:40 28° SE
STARLINK-1211 3.0 20:06:32 10° WNW 20:09:39 68° SSW 20:11:07 28° SE
STARLINK-1214 3.0 20:06:58 10° WNW 20:10:06 68° SSW 20:11:33 28° SE
STARLINK-1245 3.0 20:07:27 10° WNW 20:10:33 67° SSW 20:11:57 29° SE
STARLINK-1238 3.0 20:07:52 10° WNW 20:11:00 67° SSW 20:12:25 29° SE
Cosmos 1140 Rocket 3.4 20:06:32 10° SSW 20:11:44 87° ESE 20:16:55 10° NNE
STARLINK-1205 3.0 20:08:48 10° WNW 20:11:55 65° SSW 20:13:16 30° SE
STARLINK-1204 3.0 20:09:16 10° WNW 20:12:22 65° SSW 20:13:42 30° SE
ERBS 2.8 20:09:29 10° NW 20:12:47 48° NNE 20:14:20 26° E
Ariane Rocket 4.4 20:08:24 10° SSW 20:13:07 39° W 20:17:51 10° NNW
STARLINK-1241 3.8 20:09:58 10° WNW 20:14:07 68° NNE 20:16:28 24° E
STARLINK-29 2.9 20:14:09 10° WSW 20:17:22 85° NNW 20:19:45 17° ENE
STARLINK-1239 3.7 20:14:56 10° WNW 20:19:05 71° NNE 20:21:14 27° ESE
CZ-2C R/B 4.1 20:15:01 10° SSW 20:19:33 41° W 20:24:03 10° NNW
ATLAS CENTAUR R/B 3.3 20:17:46 10° N 20:20:23 17° NNE 20:22:10 13° ENE
SJ-6B 4.0 20:16:45 10° S 20:20:42 44° W 20:24:41 10° NNW
SAR-Lupe-2 4.4 20:18:05 10° NE 20:21:14 28° E 20:21:14 28° E
Cosmos 1300 2.6 20:18:27 10° S 20:22:14 69° E 20:26:04 10° NNE
Resurs 1-3 3.6 20:18:54 13° SSE 20:22:44 85° WSW 20:27:10 10° NNW
STARLINK-1240 3.6 20:19:54 10° WNW 20:24:04 75° NNE 20:26:01 30° ESE
Spot 2 Rocket 4.0 20:22:15 24° ESE 20:24:46 41° ENE 20:29:34 10° N
STARLINK-60 3.9 20:22:04 10° W 20:25:15 47° NNW 20:27:47 15° NE
Cosmos 1190 Rocket 4.5 20:20:44 10° SSW 20:25:59 65° WNW 20:31:16 10° NNE
STARLINK-1216 3.6 20:24:52 10° WNW 20:29:02 79° NNE 20:30:47 34° ESE
In-Cosmos 22 Rocket 4.4 20:23:22 10° N 20:29:10 61° ENE 20:32:45 23° SSE
Terra 3.6 20:29:53 15° ENE 20:30:55 16° ENE 20:33:47 10° NNE
SL-24 R/B 4.2 20:27:25 10° N 20:31:25 62° WNW 20:35:03 10° SSW
SPOT 5 4.2 20:31:40 18° ENE 20:32:19 19° ENE 20:35:20 10° NNE
CZ-2C R/B 4.0 20:27:50 10° N 20:32:32 70° WNW 20:37:06 10° SSW
STARLINK-1237 3.5 20:29:50 10° WNW 20:34:00 84° NNE 20:35:33 37° ESE
MetOp-B 4.2 20:32:14 26° SE 20:35:09 59° ENE 20:40:26 10° N
STARLINK-1228 4.3 20:34:13 10° W 20:36:44 25° SW 20:37:09 25° SSW
Cosmos 2058 Rocket 4.1 20:32:47 10° SSW 20:37:09 49° WNW 20:41:32 10° N
Cosmos 1833 Rocket 4.2 20:39:02 19° E 20:39:02 19° E 20:41:37 10° NE
STARLINK-1202 3.5 20:34:50 10° WNW 20:39:00 88° NNE 20:40:21 42° ESE
Cosmos 468 Rocket 4.0 20:35:12 10° NNW 20:40:21 63° ENE 20:42:31 34° SE
Cosmos 192 4.3 20:36:09 10° NNW 20:41:08 77° ENE 20:43:22 33° SSE
Cosmos 921 Rocket 4.3 20:39:19 10° NW 20:43:09 36° WSW 20:46:33 13° SSW
SL-4 R/B 2.5 20:41:44 10° W 20:45:00 43° N 20:46:33 26° NE
DMSP B5D2-2 4.3 20:41:04 10° N 20:46:17 74° WNW 20:51:30 10° SSW
STARLINK-1201 3.9 20:43:49 10° WNW 20:46:52 37° SW 20:47:06 36° SSW
Cosmos 1408 3.7 20:43:59 10° N 20:46:55 30° ENE 20:46:55 30° ENE
ERS-1 Rocket 3.8 20:47:01 31° E 20:48:12 35° ENE 20:52:43 10° N
STARLINK-1246 3.5 20:44:47 10° WNW 20:48:56 82° SSW 20:49:54 52° SE
RESURS DK-1 3.0 20:45:42 10° NNW 20:49:37 39° NE 20:50:15 36° ENE
Cosmos 2341 Rocket 4.4 20:45:48 10° NNW 20:52:07 63° W 20:58:19 10° S
BREEZE M DEB (TANK) 3.0 20:44:29 10° WSW 20:52:20 83° SSE 20:53:25 43° E
Cosmos 1570 Rocket 4.4 20:47:48 10° NNW 20:53:00 48° ENE 20:54:32 37° ESE
STARLINK-1224 3.5 20:49:48 10° WNW 20:53:56 77° SSW 20:54:43 57° SE
Okean 3 Rocket 4.4 20:50:21 10° N 20:54:26 34° ENE 20:54:34 34° ENE
Meteor 2-12 Rocket 4.4 20:48:41 10° N 20:54:47 69° ENE 20:57:31 34° SSE
Cosmos 2058 2.8 20:52:11 10° N 20:56:19 89° ENE 20:57:23 49° S
STARLINK-1203 3.7 20:52:10 10° WNW 20:56:21 70° SSW 20:57:04 56° SSE
COSMOS 2406 3.4 20:54:52 32° SSE 20:57:04 47° ESE 21:02:32 10° NE
Cosmos 220 Rocket 4.3 20:53:01 10° NNW 20:57:20 65° WSW 20:58:53 38° S
CZ-4C R/B 3.6 20:51:08 10° NW 20:57:36 42° NE 21:01:49 24° E
STARLINK-52 3.6 20:54:38 10° W 20:57:48 52° NNW 20:58:27 43° NNE
Resurs 01 Rocket 2.2 20:55:17 23° S 20:57:52 53° W 21:02:13 10° NNW
STARLINK-1225 3.5 20:54:47 10° WNW 20:58:55 72° SSW 20:59:30 60° SSE
MOS 1 Rocket 4.2 20:55:58 10° N 21:01:17 60° WNW 21:06:38 10° SSW
Cosmos 2218 Rocket 4.0 20:57:01 10° N 21:03:16 81° W 21:07:06 25° S
STARLINK-1230 3.6 20:59:45 10° WNW 21:03:53 67° SSW 21:04:16 62° S
Cosmos 1812 Rocket 3.5 21:02:25 32° SSW 21:04:24 83° WNW 21:08:45 10° N
CZ-2C R/B 3.1 20:59:40 10° N 21:04:46 60° WNW 21:09:53 10° SSW
FALCON 9 DEB 3.9 21:03:38 10° W 21:07:04 50° NNW 21:07:53 40° NNE
Cosmos 2151 3.2 21:03:37 10° N 21:07:34 49° ENE 21:07:34 49° ENE
STARLINK-1243 3.7 21:04:44 10° WNW 21:08:51 62° SSW 21:09:03 61° SSW
Iridium 2 4.3 21:08:18 31° SW 21:09:51 53° W 21:13:38 10° N
Cosmos 1697 Rocket 3.0 21:07:37 10° NNW 21:13:12 53° ENE 21:14:29 44° E
Cosmos 2369 4.0 21:07:46 10° NNW 21:13:19 52° ENE 21:14:34 44° E
STARLINK-1236 3.8 21:09:44 10° WNW 21:13:48 58° SW 21:13:49 58° SSW
USA 245 4.4 21:11:51 36° S 21:14:28 85° WSW 21:20:59 10° NNW
Cosmos 2181 Rocket 4.5 21:14:43 10° SSW 21:20:51 59° WNW 21:26:58 10° N
Cosmos 1076 Rocket 4.3 21:17:48 10° NNW 21:21:57 48° W 21:23:08 37° SW
STARLINK-1269 4.2 21:19:42 10° WNW 21:23:23 48° SW 21:23:23 48° SW
Cosmos 1741 Rocket 4.0 21:21:15 22° SSW 21:24:47 85° WNW 21:30:09 10° NNE
Landsat 7 3.8 21:25:10 61° S 21:25:57 79° WSW 21:30:44 10° NNW
Meteor 2-1 Rocket 4.5 21:23:23 20° SSW 21:27:33 73° WNW 21:33:31 10° N
STARLINK-1200 4.4 21:24:42 10° WNW 21:28:10 43° WSW 21:28:10 43° WSW
Cosmos 2366 rocket 4.5 21:23:30 10° NNW 21:29:29 55° W 21:32:54 26° SSW
Cosmos 1455 3.0 21:31:25 46° N 21:31:25 46° N 21:34:13 10° N
Cosmos 1763 Rocket 3.7 21:25:21 10° NNW 21:30:28 61° WSW 21:31:31 49° SSW
Cosmos 1656 3.8 21:25:56 10° NNW 21:31:37 71° WSW 21:32:50 54° S
SPOT 1/Viking Rocket 3.5 21:30:43 59° S 21:31:44 82° WSW 21:37:00 10° NNW
Cosmos 1408 Rocket 4.5 21:27:58 10° N 21:31:22 37° NE 21:31:22 37° NE
Cosmos 540 Rocket 3.3 21:28:50 10° NNW 21:34:01 75° ENE 21:34:20 72° E
SL-16 R/B 4.0 21:30:32 10° N 21:34:35 19° NE 21:36:11 17° ENE
Cosmos 2208 Rocket 3.8 21:30:21 10° NNW 21:35:36 87° ENE 21:36:03 75° SE
Cosmos 1892 3.8 21:33:21 10° NNW 21:36:59 38° W 21:37:13 38° WSW
Iridium 4 Rocket 4.0 21:34:10 10° NNW 21:38:07 41° W 21:38:54 37° WSW
Cosmos 2322 Rocket 4.0 21:37:37 10° N 21:41:30 19° NE 21:43:04 17° ENE
Cosmos 1825 3.1 21:37:44 10° N 21:40:28 46° NNW 21:40:28 46° NNW
Nadezhda 3 Rocket 3.9 21:41:26 59° SSE 21:42:35 74° E 21:48:51 10° NNE
Cosmos 1980 Rocket 2.5 21:37:54 10° NNW 21:43:25 51° ENE 21:43:48 50° ENE
USA 234 3.1 21:38:11 10° NE 21:44:44 71° SE 21:51:16 10° SW
Cosmos-2242 3.3 21:45:30 67° NNW 21:45:30 67° NNW 21:49:26 10° N
Cosmos 1814 Rocket 3.9 21:40:28 10° NNW 21:45:53 90° NE 21:46:08 82° SSE
ASTEX 1 4.1 21:50:00 44° NE 21:50:00 44° NE 21:53:58 10° N
ATLAS 5 CENTAUR R/B 4.1 21:45:50 10° WNW 21:49:22 22° NNW 21:53:17 10° NNE
Cosmos 1356 Rocket 4.0 21:49:52 57° WNW 21:49:52 57° WNW 21:53:52 10° N
Meteor 2-3 Rocket 3.7 21:49:39 10° N 21:55:21 67° ENE 21:55:21 67° ENE
ATLAS CENTAUR R/B 2.7 21:55:59 10° NW 21:58:21 35° NW 21:58:21 35° NW
Cosmos 2239 Rocket 4.4 21:58:39 10° N 22:04:55 81° W 22:05:42 69° SSW
Mayak 0.8 22:03:36 10° NNE 22:04:58 20° NNE 22:04:58 20° NNE
Terra 2.1 22:08:45 64° NW 22:08:45 64° NW 22:12:51 10° NNW
Cosmos 841 Rocket 4.0 22:04:34 10° NNW 22:09:38 51° WSW 22:09:38 51° WSW
SPOT 5 3.5 22:10:53 45° WNW 22:10:53 45° WNW 22:14:19 10° NNW
Cosmos 1821 Rocket 4.2 22:03:54 10° NNW 22:10:14 66° W 22:11:20 56° SW
Cosmos 1934 Rocket 3.8 22:05:01 10° N 22:11:19 82° E 22:11:27 81° ESE
Cosmos 2360 4.1 22:05:44 10° NNW 22:11:16 80° W 22:11:16 80° W
Cosmos 2082 Rocket 2.7 22:15:56 48° NE 22:15:56 48° NE 22:20:04 10° NNE
Cosmos 2278 3.7 22:09:00 10° NNW 22:14:24 78° WNW 22:14:24 78° WNW
Meteor 2-10 Rocket 4.4 22:14:57 41° WSW 22:16:04 47° WNW 22:21:21 10° N
Cosmos 1833 Rocket 2.8 22:20:38 68° W 22:20:55 70° WNW 22:26:35 10° NNE
ERS-1 Rocket 4.1 22:27:00 34° W 22:27:00 34° W 22:31:33 10° NNW
Cosmos 1605 Rocket 4.0 22:23:33 10° N 22:29:21 72° NE 22:29:21 72° NE
Cosmos 2344 4.3 22:25:10 10° NW 22:34:41 86° NE 22:38:35 51° SE
CZ-4C R/B 2.9 22:39:32 10° NW 22:46:43 69° SW 22:46:59 69° SW
Cosmos 1697 Rocket 4.2 22:52:07 10° NW 22:56:13 27° W 22:56:13 27° W
Cosmos 1607 4.3 23:12:04 60° N 23:12:04 60° N 23:17:18 10° NE
SL-16 R/B 2.9 23:13:52 10° NNW 23:18:02 50° NNW 23:18:02 50° NNW
Cosmos 2360 Rocket 3.2 23:14:49 10° NNW 23:19:17 39° NNE 23:19:17 39° NNE
Cosmos 2322 Rocket 3.0 23:20:49 10° NNW 23:24:51 48° NNW 23:24:51 48° NNW
Cosmos 1980 Rocket 3.8 23:22:22 10° NW 23:25:34 25° WNW 23:25:34 25° WNW
USA 234 3.9 23:21:20 10° NE 23:27:39 53° NNW 23:33:57 10° W
Cosmos 1459 Rocket 4.3 23:30:58 10° N 23:36:11 62° N 23:36:11 62° N
Cosmos 2333 Rocket 3.7 23:37:27 10° NNW 23:42:18 28° NE 23:42:25 28° NE
Mayak 1.4 23:39:54 10° NNW 23:41:32 17° NW 23:41:32 17° NW
